Francistown, Botswana

11:50 AM CAT on May 25, 2018 (GMT +0200)
Francistown

Weather History for FBFT - October, 2012

Change the Weather History Date:

Sunday, October 14, 2012

  Actual Average Record
Temperature  
Mean Temperature 76 °F -  
Max Temperature 85 °F 87 °F 98 °F (2003)
Min Temperature 68 °F 63 °F 59 °F (2000)
Cooling Degree Days 12    
Growing Degree Days 26 (Base 50)    
Moisture  
Dew Point 57 °F    
Average Humidity 58    
Maximum Humidity 100    
Minimum Humidity 37    
Precipitation  
Precipitation 0.00 in - - ()
Sea Level Pressure  
Sea Level Pressure 30.10 in    
Wind  
Wind Speed 12 mph ()    
Max Wind Speed 17 mph    
Max Gust Speed -    
Visibility 6.2 miles    
Events      
Averages and records for this station are not official NWS values.
T = Trace of Precipitation, MM = Missing Value Source: Averaged Metar Reports

Daily Weather History Graph

Daily Weather History Graph

Search for Another Location

Airport or City:

Astronomy

Oct. 14, 2012 Rise Set
Actual Time 5:39 AM CAT 6:12 PM CAT
Civil Twilight 5:16 AM CAT 6:35 PM CAT
Nautical Twilight 4:50 AM CAT 7:01 PM CAT
Astronomical Twilight 4:23 AM CAT 7:28 PM CAT
Moon 4:32 AM CAT (10/14) 5:16 PM CAT (10/14)
Length of Visible Light 13h 18m
Length of Day
12h 33m
Waning Crescent, 2% of the Moon is Illuminated
Oct 14
Waning Crescent
Oct 15
New
Oct 22
First Quarter
Oct 29
Full
Nov 7
Last Quarter

Hourly Weather History & Observations

Time (CAT) Temp. Heat Index Dew Point Humidity Pressure Visibility Wind Dir Wind Speed Gust Speed Precip Events Conditions
12:00 AM 64.4 °F - 57.2 °F 77% 30.15 in 6.2 mi ESE 12.7 mph - N/A   Overcast
1:00 AM 59.0 °F - 59.0 °F 100% 30.15 in 6.2 mi East 17.3 mph - N/A   Overcast
2:00 AM 64.4 °F - 57.2 °F 77% 30.12 in 6.2 mi ESE 13.8 mph - N/A   Overcast
3:00 AM 66.2 °F - 57.2 °F 73% 30.12 in 6.2 mi East 12.7 mph - N/A   Mostly Cloudy
5:00 AM 64.4 °F - 59.0 °F 83% 30.12 in 6.2 mi East 13.8 mph - N/A   Mostly Cloudy
6:00 AM 62.6 °F - 59.0 °F 88% 30.12 in 6.2 mi East 9.2 mph - N/A   Mostly Cloudy
7:00 AM 64.4 °F - 59.0 °F 83% 30.12 in 6.2 mi East 11.5 mph - N/A   Scattered Clouds
8:00 AM 69 °F - 59 °F 62%  in 6 mi East 15.0 mph - -   Partly Cloudy
8:00 AM 68.0 °F - 59.0 °F 73% 30.15 in 6.2 mi East 15.0 mph - N/A   Scattered Clouds
9:00 AM 71.6 °F - 59.0 °F 64% 30.15 in 6.2 mi East 16.1 mph - N/A   Scattered Clouds
10:00 AM 75.2 °F - 57.2 °F 53% 30.15 in 6.2 mi East 11.5 mph - N/A   Scattered Clouds
11:00 AM 78.8 °F - 57.2 °F 47% 30.12 in 6.2 mi ESE 15.0 mph - N/A   Scattered Clouds
12:00 PM 80.6 °F 80.8 °F 57.2 °F 45% 30.09 in 6.2 mi ENE 12.7 mph - N/A   Scattered Clouds
1:00 PM 82.4 °F 82.0 °F 57.2 °F 42% 30.06 in 6.2 mi East 11.5 mph - N/A   Mostly Cloudy
2:00 PM 84.2 °F 83.5 °F 57.2 °F 40% 30.04 in 6.2 mi East 13.8 mph - N/A   Mostly Cloudy
3:00 PM 84.2 °F 83.5 °F 57.2 °F 40% 30.04 in 6.2 mi SE 17.3 mph - N/A   Mostly Cloudy
4:00 PM 84.2 °F 83.0 °F 55.4 °F 37% 30.01 in 6.2 mi East 11.5 mph - N/A   Mostly Cloudy
5:00 PM 82.4 °F 81.7 °F 55.4 °F 39% 30.01 in 6.2 mi ESE 12.7 mph - N/A   Scattered Clouds
6:00 PM 80.6 °F 80.5 °F 55.4 °F 42% 30.04 in 6.2 mi ESE 16.1 mph - N/A   Partly Cloudy
7:00 PM 78.8 °F - 55.4 °F 44% 30.06 in 6.2 mi ESE 16.1 mph - N/A   Partly Cloudy
8:00 PM 76 °F - 55 °F 38%  in 6 mi East 16.1 mph - -   Scattered Clouds
8:00 PM 77.0 °F - 55.4 °F 47% 30.06 in 6.2 mi East 16.1 mph - N/A   Partly Cloudy
9:00 PM 75.2 °F - 55.4 °F 50% 30.09 in 6.2 mi East 13.8 mph - N/A   Partly Cloudy
10:00 PM 73.4 °F - 57.2 °F 57% 30.12 in - East 13.8 mph - N/A   Clear
11:00 PM 71.6 °F - 57.2 °F 60% 30.12 in - East 10.4 mph - N/A   Clear